Home   Weather   Sanandaj   Past weeks

Flag for Iran Past Weather in Sanandaj, Iran — Yesterday and Last 2 Weeks

Now
28 °F

Sunny.


Feels Like: 28 °F
Forecast: 20 / 49 °F
Wind: 2 mph from North

Location: Sanandaj Airport

Current Time: Feb 22, 2017 at 10:00:07 am

Latest Report: Feb 22, 2017 at 9:30 am


Visibility: 10 mi

Pressure: 30.12 "Hg (24.93 "Hg at 1502m altitude)

Humidity: 55%

Dew Point: 14 °F

Location of SanandajLocation

Past Weather in Sanandaj — Graph

°F

Sanandaj Temperature Yesterday

Maximum temperature yesterday: 43 °F (at 3:30 pm)
Minimum temperature yesterday: 16 °F (at 5:22 am)
Average temperature yesterday: 28 °F

High & Low Weather Summary for the Past Weeks

 TemperatureHumidityPressure
High50 °F (Feb 7, 3:30 pm)100% (Feb 9, 8:21 pm)30.48 "Hg (Feb 9, 8:21 pm)
Low10 °F (Feb 19, 7:30 am)28% (Feb 8, 4:30 pm)29.74 "Hg (Feb 15, 9:24 pm)
Average33 °F69%30.07 "Hg
* Reported Feb 7 8:30 am — Feb 22 8:30 am, Sanandaj, Weather by CustomWeather, © 2017

Note: Actual official high and low records may vary slightly from our data, if they occured in-between our weather recording intervals... More about our weather records

Advertising

Sanandaj Weather History for the Previous 24 Hours

Scroll right to see more
 ConditionsComfort  
Time TempWeatherWind HumidityBarometerVisibility
8:30 am
Wed, Feb 22
23 °FSunny.2 mph68%30.12 "Hg10 mi
7:30 am18 °FClear.No wind79%30.09 "Hg10 mi
6:30 am18 °FClear.No wind79%30.09 "Hg10 mi
5:30 am19 °FClear.No wind79%30.07 "Hg10 mi
5:22 am19 °FClear.No wind79%30.07 "Hg10 mi
4:20 am19 °FClear.No wind79%30.07 "Hg10 mi
3:21 am21 °FClear.5 mph74%30.04 "Hg10 mi
2:21 am21 °FClear.5 mph80%30.07 "Hg10 mi
1:20 am23 °FClear.5 mph74%30.07 "Hg10 mi
12:22 am25 °FClear.5 mph74%30.07 "Hg10 mi
11:20 pm
Tue, Feb 21
27 °FClear.5 mph69%30.07 "Hg10 mi
10:21 pm28 °FClear.5 mph64%30.07 "Hg10 mi
9:23 pm30 °FClear.5 mph64%30.07 "Hg10 mi
8:30 pm30 °FClear.5 mph64%30.07 "Hg10 mi
7:30 pm34 °FClear.7 mph56%30.04 "Hg10 mi
6:30 pm37 °FSunny.7 mph48%30.04 "Hg10 mi
5:30 pm41 °FSunny.9 mph42%30.04 "Hg10 mi
4:30 pm43 °FSunny.7 mph39%30.01 "Hg10 mi
3:30 pm43 °FSunny.5 mph34%30.04 "Hg10 mi
2:30 pm41 °FSunny.5 mph36%30.04 "Hg10 mi
1:30 pm37 °FSunny.5 mph41%30.09 "Hg10 mi
12:30 pm34 °FSunny.5 mph48%30.12 "Hg10 mi
11:30 am30 °FSunny.5 mph51%30.15 "Hg10 mi
10:30 am25 °FSunny.2 mph59%30.18 "Hg10 mi
Weather by CustomWeather, © 2017

See weather overviewHow to use our weather pages